User: anonymous   Login
Location: Champseau
(45.8333°N, 1.7667°E)
Time: 14:32:01
(UTC+00:00)
Language:

NOAA 18 - Orbit

View from above orbital plane
View from above orbital plane
View from above satellite
View from above satellite

Ground track
Ground track

The orbit data is extracted from the following two-line orbital elements,

1 28654U 05018A   21332.13166866  .00000100  00000-0  78227-4 0  9998
2 28654  98.9761  37.4971 0014451 176.7037 183.4232 14.12661215851640
Epoch (UTC): 28 November 2021 03:09:36
Eccentricity: 0.0014451
inclination: 98.9761°
perigee height: 840 km
apogee height: 861 km
right ascension of ascending node: 37.4971°
argument of perigee: 176.7037°
revolutions per day: 14.12661215
mean anomaly at epoch: 183.4232°
orbit number at epoch: 85164

The dashed part of the orbit path shows where the satellite is in the earth's shadow,  

DLR